Hulett, WY

3:27 AM MST on February 21, 2018 (GMT -0700)
Hulett

Weather History for KW43 - April, 2014

Change the Weather History Date:

Tuesday, April 29, 2014

  Actual Average (KEFC) Record (KEFC)
Temperature  
Mean Temperature 34 °F -  
Max Temperature 35 °F 61 °F 89 °F (1949)
Min Temperature 32 °F 35 °F 20 °F (1956)
Degree Days  
Heating Degree Days 32    
Moisture  
Dew Point 32 °F    
Average Humidity 94    
Maximum Humidity 100    
Minimum Humidity 87    
Precipitation  
Precipitation 0.00 in - - ()
Sea Level Pressure  
Sea Level Pressure 30.20 in    
Wind  
Wind Speed 18 mph (NNW)    
Max Wind Speed 28 mph    
Max Gust Speed 39 mph    
Visibility 5 miles    
Events Snow    
Averages and records for this station are not official NWS values.
T = Trace of Precipitation, MM = Missing Value Source: NWS Daily Summary

Daily Weather History Graph

Daily Weather History Graph

Search for Another Location

Airport or City:

Trip Planner

Search our weather history database for the weather conditions in past years. The results will help you decide how hot, cold, wet, or windy it might be!

Date:

Astronomy

Apr. 29, 2014 Rise Set
Actual Time 5:51 AM MDT 8:00 PM MDT
Civil Twilight 5:19 AM MDT 8:32 PM MDT
Nautical Twilight 4:40 AM MDT 9:12 PM MDT
Astronomical Twilight 3:56 AM MDT 9:56 PM MDT
Moon 6:11 AM MDT (4/29) 8:44 PM MDT (4/29)
Length of Visible Light 15h 13m
Length of Day
14h 09m
New Moon, 0% of the Moon is Illuminated
Apr 29
New Moon
May 6
First Quarter
May 14
Full
May 21
Last Quarter
May 28
New

Hourly Weather History & Observations

Time (MDT) Temp. Windchill Dew Point Humidity Pressure Visibility Wind Dir Wind Speed Gust Speed Precip Events Conditions
12:15 AM 33.8 °F 23.5 °F 33.8 °F 100% 30.03 in 4.0 mi North 16.1 mph - N/A Snow Light Snow
12:35 AM - - - N/A% 30.04 in 10.0 mi NNW 13.8 mph 21.9 mph N/A   Overcast
12:55 AM 35.6 °F 24.5 °F 33.8 °F 93% 30.05 in 10.0 mi NNW 20.7 mph 26.5 mph N/A   Overcast
1:15 AM 35.6 °F 25.5 °F 33.8 °F 93% 30.05 in 10.0 mi NNW 17.3 mph 27.6 mph N/A   Overcast
1:35 AM 35.6 °F 25.2 °F 33.8 °F 93% 30.06 in 5.0 mi NNW 18.4 mph 33.4 mph N/A   Overcast
1:55 AM 35.6 °F 23.7 °F 32.0 °F 87% 30.06 in 10.0 mi NNW 24.2 mph 32.2 mph N/A   Overcast
2:15 AM 35.6 °F 24.2 °F 32.0 °F 87% 30.06 in 10.0 mi NNW 21.9 mph 29.9 mph N/A   Overcast
2:35 AM 35.6 °F 24.5 °F 32.0 °F 87% 30.08 in 10.0 mi NNW 20.7 mph 38.0 mph N/A   Overcast
3:15 AM 35.6 °F 23.0 °F 32.0 °F 87% 30.08 in 10.0 mi NNW 27.6 mph 38.0 mph N/A   Overcast
3:35 AM 35.6 °F 23.4 °F 32.0 °F 87% 30.09 in 10.0 mi North 25.3 mph 32.2 mph N/A   Overcast
3:55 AM 35.6 °F 24.5 °F 32.0 °F 87% 30.09 in 10.0 mi NNW 20.7 mph 35.7 mph N/A   Overcast
4:15 AM 33.8 °F 21.9 °F 32.0 °F 93% 30.09 in 10.0 mi NNW 21.9 mph 32.2 mph N/A   Overcast
4:35 AM 33.8 °F 21.9 °F 32.0 °F 93% 30.10 in 10.0 mi NNW 21.9 mph 31.1 mph N/A   Overcast
4:55 AM 35.6 °F 24.8 °F 32.0 °F 87% 30.10 in 10.0 mi NNW 19.6 mph 35.7 mph N/A   Overcast
5:15 AM 35.6 °F 25.2 °F 32.0 °F 87% 30.10 in 10.0 mi NNW 18.4 mph 33.4 mph N/A   Overcast
5:35 AM 35.6 °F 24.8 °F 32.0 °F 87% 30.11 in 10.0 mi NNW 19.6 mph 27.6 mph N/A   Overcast
5:55 AM 33.8 °F 23.2 °F 32.0 °F 93% 30.11 in 5.0 mi NW 17.3 mph 28.8 mph N/A   Overcast
6:15 AM 33.8 °F 23.5 °F 32.0 °F 93% 30.12 in 7.0 mi NW 16.1 mph 26.5 mph N/A Snow Light Snow
6:35 AM 33.8 °F 22.8 °F 32.0 °F 93% 30.12 in 4.0 mi NNW 18.4 mph 27.6 mph N/A Snow Light Snow
6:55 AM 33.8 °F 22.8 °F 32.0 °F 93% 30.13 in 2.5 mi NNW 18.4 mph 28.8 mph N/A Snow Light Snow
7:15 AM 32.0 °F 20.5 °F 32.0 °F 100% 30.14 in 1.0 mi NNW 18.4 mph 23.0 mph N/A Snow Light Snow
7:35 AM 32.0 °F 18.9 °F 32.0 °F 100% 30.14 in 1.2 mi North 24.2 mph 33.4 mph N/A Snow Light Snow
7:55 AM 32.0 °F 19.5 °F 32.0 °F 100% 30.15 in 1.0 mi North 21.9 mph 28.8 mph N/A Snow Light Snow
8:15 AM 32.0 °F 20.8 °F 32.0 °F 100% 30.15 in 1.2 mi North 17.3 mph 26.5 mph N/A Snow Light Snow
8:35 AM 32.0 °F 20.5 °F 32.0 °F 100% 30.16 in 1.0 mi NNW 18.4 mph 28.8 mph N/A Snow Light Snow
8:55 AM 32.0 °F 22.1 °F 32.0 °F 100% 30.17 in 0.8 mi NNW 13.8 mph 20.7 mph N/A Snow Light Snow
9:15 AM - - - N/A% 30.18 in 0.8 mi North 18.4 mph 27.6 mph N/A   Unknown
9:35 AM 32.0 °F 18.1 °F 32.0 °F 100% 30.18 in 0.8 mi NNW 27.6 mph 39.1 mph N/A Snow Light Snow
9:55 AM 32.0 °F 19.8 °F 30.2 °F 93% 30.19 in 1.0 mi North 20.7 mph 33.4 mph N/A Snow Light Snow
10:15 AM - - - N/A% 30.20 in 1.0 mi North 21.9 mph 29.9 mph N/A   Unknown
10:35 AM - - - N/A% 30.21 in 0.8 mi NNW 18.4 mph 32.2 mph N/A   Unknown
10:55 AM - - - N/A% 30.21 in 1.5 mi NNW 20.7 mph 28.8 mph N/A   Unknown
11:15 AM - - - N/A% 30.21 in 1.2 mi North 16.1 mph - N/A   Unknown
11:35 AM - - - N/A% 30.21 in 1.8 mi NNW 19.6 mph 24.2 mph N/A   Unknown
11:55 AM 33.8 °F 24.3 °F 30.2 °F 87% 30.21 in 2.0 mi NNW 13.8 mph 23.0 mph N/A Snow Light Snow
12:15 PM 32.0 °F 20.5 °F 32.0 °F 100% 30.20 in 1.5 mi North 18.4 mph 26.5 mph N/A Snow Light Snow
12:35 PM 33.8 °F 23.9 °F 32.0 °F 93% 30.21 in 1.8 mi North 15.0 mph 20.7 mph N/A Snow Light Snow
12:55 PM 33.8 °F 22.8 °F 32.0 °F 93% 30.21 in 1.8 mi North 18.4 mph 23.0 mph N/A Snow Light Snow
1:15 PM - - - N/A% 30.21 in 4.0 mi North 18.4 mph 23.0 mph N/A   Unknown
1:35 PM 33.8 °F 23.5 °F 32.0 °F 93% 30.21 in 1.0 mi NNW 16.1 mph 27.6 mph N/A Snow Light Snow
1:55 PM 33.8 °F 23.5 °F 32.0 °F 93% 30.21 in 3.0 mi NNW 16.1 mph 23.0 mph N/A Snow Light Snow
2:15 PM 33.8 °F 23.2 °F 32.0 °F 93% 30.22 in 1.8 mi NNW 17.3 mph 24.2 mph N/A Snow Light Snow
2:35 PM 33.8 °F 23.2 °F 32.0 °F 93% 30.22 in 0.8 mi North 17.3 mph 26.5 mph N/A Snow Light Snow
2:55 PM 33.8 °F 21.9 °F 32.0 °F 93% 30.22 in 1.0 mi North 21.9 mph 28.8 mph N/A Snow Light Snow
3:15 PM 33.8 °F 22.2 °F 32.0 °F 93% 30.22 in 3.0 mi North 20.7 mph 26.5 mph N/A Snow Light Snow
3:35 PM 33.8 °F 22.5 °F 32.0 °F 93% 30.22 in 1.8 mi North 19.6 mph 25.3 mph N/A Snow Light Snow
3:55 PM 33.8 °F 23.9 °F 32.0 °F 93% 30.23 in 2.5 mi NNW 15.0 mph 20.7 mph N/A Snow Light Snow
4:15 PM 35.6 °F 25.5 °F 32.0 °F 87% 30.23 in 2.0 mi NNW 17.3 mph 23.0 mph N/A Snow Light Snow
4:35 PM 35.6 °F 24.2 °F 32.0 °F 87% 30.23 in 10.0 mi North 21.9 mph 27.6 mph N/A   Overcast
4:55 PM 35.6 °F 24.8 °F 32.0 °F 87% 30.23 in 10.0 mi NNW 19.6 mph 25.3 mph N/A Snow Light Snow
5:15 PM 33.8 °F 23.2 °F 32.0 °F 93% 30.25 in 1.8 mi NNW 17.3 mph 31.1 mph N/A Snow Light Snow
5:35 PM 33.8 °F 23.5 °F 32.0 °F 93% 30.25 in 4.0 mi North 16.1 mph 31.1 mph N/A Snow Light Snow
5:55 PM 33.8 °F 22.5 °F 32.0 °F 93% 30.26 in 2.0 mi North 19.6 mph 26.5 mph N/A Snow Light Snow
6:15 PM 33.8 °F 23.5 °F 32.0 °F 93% 30.27 in 5.0 mi NNW 16.1 mph 23.0 mph N/A Snow Light Snow
6:35 PM 33.8 °F 24.8 °F 32.0 °F 93% 30.27 in 7.0 mi NNW 12.7 mph 23.0 mph N/A Snow Light Snow
6:55 PM 32.0 °F 22.1 °F 32.0 °F 100% 30.28 in 10.0 mi North 13.8 mph - N/A   Overcast
7:15 PM 32.0 °F 22.1 °F 32.0 °F 100% 30.29 in 3.0 mi North 13.8 mph 19.6 mph N/A Snow Light Snow
7:35 PM 32.0 °F 23.0 °F 32.0 °F 100% 30.30 in 10.0 mi North 11.5 mph 17.3 mph N/A   Overcast
7:55 PM 32.0 °F 22.5 °F 32.0 °F 100% 30.30 in 10.0 mi North 12.7 mph - N/A   Overcast
8:15 PM 32.0 °F 23.0 °F 32.0 °F 100% 30.30 in 10.0 mi North 11.5 mph - N/A   Overcast
8:35 PM 32.0 °F 24.2 °F 32.0 °F 100% 30.31 in 1.2 mi NNW 9.2 mph - N/A Snow Light Snow
8:55 PM 32.0 °F 23.0 °F 32.0 °F 100% 30.32 in 4.0 mi NNW 11.5 mph 19.6 mph N/A Snow Light Snow
9:15 PM - - - N/A% 30.32 in 3.0 mi North 15.0 mph 21.9 mph N/A   Unknown
9:35 PM 32.0 °F 21.2 °F 32.0 °F 100% 30.33 in 7.0 mi North 16.1 mph 25.3 mph N/A   Overcast
9:55 PM 32.0 °F 22.1 °F 32.0 °F 100% 30.33 in 10.0 mi NNW 13.8 mph 19.6 mph N/A   Overcast
10:15 PM 32.0 °F 23.0 °F 32.0 °F 100% 30.33 in 10.0 mi North 11.5 mph 18.4 mph N/A   Overcast
10:35 PM 32.0 °F 24.8 °F 32.0 °F 100% 30.33 in 10.0 mi NNW 8.1 mph 16.1 mph N/A   Overcast
10:55 PM 32.0 °F 23.6 °F 30.2 °F 93% 30.34 in 10.0 mi NNW 10.4 mph - N/A   Overcast
11:15 PM 32.0 °F 23.0 °F 30.2 °F 93% 30.34 in 10.0 mi NNW 11.5 mph - N/A   Overcast
11:35 PM 32.0 °F 23.6 °F 30.2 °F 93% 30.33 in 10.0 mi NNW 10.4 mph 18.4 mph N/A   Overcast
11:55 PM 32.0 °F 23.0 °F 28.4 °F 87% 30.33 in 10.0 mi NNW 11.5 mph - N/A   Overcast